TimeCST,TemperatureF,Dew PointF,Humidity,Sea Level PressureIn,VisibilityMPH,Wind Direction,Wind SpeedMPH,Gust SpeedMPH,PrecipitationIn,Events,Conditions,WindDirDegrees,DateUTC
12:56 AM,46.9,41.0,80,30.27,10.0,ESE,4.6,-,N/A,,Clear,120,2013-12-01 06:56:00
1:56 AM,46.9,41.0,80,30.26,10.0,ESE,3.5,-,N/A,,Clear,120,2013-12-01 07:56:00
2:56 AM,45.0,39.9,82,30.25,10.0,Calm,Calm,-,N/A,,Clear,0,2013-12-01 08:56:00
3:56 AM,46.0,41.0,83,30.25,10.0,Calm,Calm,-,N/A,,Overcast,0,2013-12-01 09:56:00
4:56 AM,44.1,39.9,85,30.25,10.0,ESE,3.5,-,N/A,,Partly Cloudy,120,2013-12-01 10:56:00
5:56 AM,44.1,39.0,82,30.26,10.0,Calm,Calm,-,N/A,,Clear,0,2013-12-01 11:56:00
6:56 AM,43.0,39.0,86,30.27,8.0,Calm,Calm,-,N/A,,Clear,0,2013-12-01 12:56:00
7:56 AM,48.9,39.9,71,30.27,10.0,SE,4.6,-,N/A,,Clear,130,2013-12-01 13:56:00
8:56 AM,52.0,41.0,66,30.26,10.0,ESE,5.8,-,N/A,,Mostly Cloudy,120,2013-12-01 14:56:00
9:56 AM,57.0,42.1,57,30.25,10.0,Calm,Calm,-,N/A,,Clear,0,2013-12-01 15:56:00
10:56 AM,61.0,45.0,56,30.22,10.0,Variable,3.5,-,N/A,,Clear,0,2013-12-01 16:56:00
11:56 AM,63.0,46.0,54,30.18,10.0,Calm,Calm,-,N/A,,Clear,0,2013-12-01 17:56:00
12:56 PM,64.0,46.0,52,30.14,10.0,Calm,Calm,-,N/A,,Clear,0,2013-12-01 18:56:00
1:56 PM,64.9,44.1,47,30.12,10.0,NW,5.8,-,N/A,,Clear,320,2013-12-01 19:56:00
2:56 PM,64.9,44.1,47,30.09,10.0,Calm,Calm,-,N/A,,Clear,0,2013-12-01 20:56:00
3:56 PM,63.0,46.0,54,30.09,10.0,Calm,Calm,-,N/A,,Clear,0,2013-12-01 21:56:00
4:56 PM,57.9,48.0,70,30.08,10.0,Calm,Calm,-,N/A,,Clear,0,2013-12-01 22:56:00
5:56 PM,55.0,48.9,80,30.08,10.0,Calm,Calm,-,N/A,,Clear,0,2013-12-01 23:56:00
6:56 PM,54.0,48.0,80,30.07,10.0,Calm,Calm,-,N/A,,Clear,0,2013-12-02 00:56:00
7:56 PM,53.1,48.0,83,30.06,10.0,Calm,Calm,-,N/A,,Clear,0,2013-12-02 01:56:00
8:56 PM,52.0,48.0,86,30.06,10.0,Calm,Calm,-,N/A,,Clear,0,2013-12-02 02:56:00
9:56 PM,51.1,46.9,86,30.05,10.0,Calm,Calm,-,N/A,,Clear,0,2013-12-02 03:56:00
10:56 PM,51.1,46.9,86,30.03,10.0,Calm,Calm,-,N/A,,Clear,0,2013-12-02 04:56:00
11:56 PM,52.0,46.9,83,30.03,10.0,Calm,Calm,-,N/A,,Clear,0,2013-12-02 05:56:00